7 * 24
多渠道服务支持
Hi!有什么问题可以问我哦~
STARLINK-36571是美国于2026年1月25日发射的星链系列卫星,归属SpaceX星链互联网星座项目,服务全球卫星互联网通信,为偏远地区、网络空白区域提供高速宽带接入。星链系统通过密集低轨卫星组网,可降低信号延迟,该卫星是星链星座持续扩容、完善全球覆盖能力的组成部分。
美国
(US)
| 数据来源 | 国际轨道数据 |
| 星历时间: | 2026-04-04T01:39:48+0800 8小时前 查看轨道信息 |
| 半长轴: | 6843.823km |
| 偏心率: | 0.0002197 |
| 轨道倾角: | 97.284° |
| 近地点辐角 | 82.791° |
| 升交点赤经 | 154.811° |
| 平近点角 | 277.358° |
| 近地点: | 464.182km |
| 远地点: | 467.19km |
| 周期: | 93.909分钟 |
| 每日圈数: | 15.333973 |